[[{"header":{"parameterUnit":"m.s-1","parameterCategory":1,"la1":30.2991,"la2":30.254,"lo1":-89.0895,"lo2":-89.0444,"dy":0.0017,"dx":0.0017,"nx":28,"ny":28,"refTime":"2023-07-21T03:00:00:Z","depth":0,"parameterNumber":2,"parameterNumberName":"U-component_of_WINDS"},"data":[0,0,0,0,0,0,0,0,0,0,0,0,0,0,0,0,0,0,0,0,0,0,0,0,0,0,0,0,0,0,0,0,0,0,0,0,0,0,0,0,0,0,0,0,0,0,0,0,0,0,0,0,0,0,0,0,0,0,4.6842,4.6844,0,4.7012,4.7014,4.7016,4.6964,4.696,4.6957,4.6953,4.7131,4.7139,4.7147,0,0,0,0,0,0,0,0,0,0,0,0,0,4.6475,4.6482,4.6842,4.6844,4.6846,4.7011,4.7014,4.7016,4.6965,4.696,4.6956,4.6952,4.7128,4.7138,4.7147,0,0,0,0,0,0,0,0,0,0,0,0,0,4.6639,4.6485,4.6841,4.684,4.6842,4.7011,4.7014,4.7017,4.6965,4.696,4.6955,4.695,4.7125,4.7137,4.7149,4.733,0,0,4.7186,4.7191,0,0,0,0,0,0,0,0,4.663,4.6652,4.6838,4.6841,4.6843,4.6961,4.6949,4.7122,4.6967,4.6919,4.6953,4.6947,4.7079,4.7094,4.7138,4.7339,4.7346,4.7187,4.7194,4.7199,4.7203,0,0,0,0,0,0,0,4.6618,4.6645,4.6909,4.6841,4.6844,4.6832,4.6849,4.6982,4.7027,4.6922,4.6919,4.694,4.7079,4.7127,4.7142,4.7349,4.7186,4.7197,4.7205,4.7209,4.7707,4.7712,0,0,0,0,0,0,4.6605,4.6636,4.6904,4.6914,4.6721,4.6843,4.6862,4.6929,4.7025,4.7035,4.6944,4.6937,4.7109,4.7128,4.7148,4.7367,4.7199,4.721,4.7217,4.7701,4.7708,4.7715,0,0,0,0,0,0,4.6598,4.663,4.6897,4.6774,4.6807,4.6855,4.693,4.6935,4.6982,4.7042,4.705,4.6984,4.7105,4.7131,4.7285,4.7372,4.7216,4.7227,4.7694,4.7703,4.7711,4.7806,0,0,0,0,0,0,4.6587,4.6627,4.6696,4.6776,4.6814,4.7031,4.6935,4.6942,4.7003,4.6995,4.7081,4.7091,4.7103,4.7267,4.7297,4.7386,4.7236,4.7686,4.7698,4.7709,4.7796,4.7817,4.7836,0,0,0,0,0,4.6574,4.6717,4.67,4.6733,4.6901,4.7036,4.7057,4.7068,4.701,4.708,4.7118,4.7088,4.7358,4.7284,4.7317,4.7411,4.7681,4.7695,4.7708,4.7787,4.7813,4.7836,0,0,0,0,0,0,4.6648,4.6727,4.6709,4.6882,4.6952,4.7027,4.7115,4.7096,4.7185,4.7174,4.7184,4.7204,4.7362,4.7401,4.7317,4.7591,4.7511,4.7532,4.756,4.7585,4.7605,4.7592,4.7246,0,0,0,0,0,4.6684,4.6785,4.685,4.6996,4.7032,4.7068,4.7127,4.7128,4.7202,4.7232,4.7281,4.7355,4.7456,4.7523,4.7619,4.7801,4.7819,4.7882,4.7902,4.7918,4.7936,4.8035,4.8063,4.7759,4.7759,4.7758,0,0,4.676,4.6816,4.688,4.7012,4.7067,4.7173,4.7093,4.7209,4.7288,4.725,4.7398,4.7437,4.752,4.7688,4.7765,4.7726,4.8024,4.7935,4.7948,4.7957,4.8052,4.808,4.8106,4.7768,4.7766,4.7765,0,0,4.6952,4.7005,4.7132,4.7188,4.7271,4.7294,4.7324,4.7402,4.7426,4.7574,4.7548,4.7642,4.7817,4.7876,4.793,4.8144,4.8119,4.8175,4.8281,4.8377,4.8401,4.8422,4.8499,4.8526,4.8193,4.8193,4.8193,0,4.7036,4.7194,4.72,4.7318,4.7377,4.7346,4.7475,4.753,4.7641,4.7683,4.7637,4.7855,4.7909,4.809,4.8142,4.8187,4.8222,4.8165,4.8397,4.8418,4.8438,4.8511,4.854,4.8199,4.8198,4.8198,4.8197,0,4.7293,4.7403,4.7496,4.7602,4.7672,4.7795,4.782,4.789,4.7886,4.7913,4.8065,4.8128,4.8236,4.8279,4.8277,4.8461,4.8435,4.8393,4.8313,4.8473,4.8542,4.857,4.8208,4.8206,4.8204,4.8202,0,0,4.7538,4.7645,4.7679,4.7726,4.7816,4.7901,4.8022,4.8127,4.8187,4.8265,4.8367,4.8515,4.8477,4.8537,4.8541,4.8625,4.8791,4.8573,4.8575,4.8612,4.8998,4.9028,4.906,4.8775,4.878,4.8784,4.899,0,4.7737,4.795,4.7959,4.8153,4.8254,4.8226,4.8332,4.8398,4.8427,4.8518,4.855,4.8655,4.8597,4.8633,4.8715,4.8753,4.8868,4.8738,4.8871,4.8875,4.8851,4.9096,4.9129,4.9321,4.9017,4.9022,4.9025,0,4.7999,4.8083,4.8287,4.8361,4.8404,4.8499,4.8595,4.8682,4.8757,4.8772,4.8839,4.883,4.8955,4.887,4.9043,4.8954,4.9009,4.9036,4.9043,4.9056,4.896,4.9116,4.9383,4.9411,4.9068,4.9064,4.9061,0,4.8157,4.8322,4.8464,4.8506,4.8596,4.8663,4.8704,4.8773,4.8835,4.892,4.896,4.9059,4.9113,4.919,4.9208,4.9144,4.9381,4.9297,4.9398,4.9397,4.9449,4.9446,4.9728,4.9484,4.9484,4.9483,4.9483,0,4.838,4.8506,4.8536,4.8625,4.8765,4.8774,4.8912,4.8948,4.901,4.9105,4.9087,4.9177,4.9195,4.9289,4.9305,4.9445,4.947,4.9486,4.9489,4.9488,4.9486,4.9524,4.9511,4.9491,4.9489,4.9488,4.9486,0,4.858,4.8606,4.876,4.8831,4.8852,4.8952,4.9014,4.9099,4.9125,4.9245,4.9274,4.9316,4.9425,4.9451,4.9582,4.9592,4.9758,4.9748,4.9733,4.9732,4.9831,4.9821,5.0148,5.0191,4.9919,4.9921,4.9924,0,4.8721,4.8817,4.8898,4.896,4.9003,4.9103,4.9166,4.9178,4.9245,4.9336,4.941,4.9517,4.9603,4.978,4.9822,4.9922,4.9914,5.0022,4.9929,4.9925,4.9916,4.991,4.9919,5.004,5.0042,5.0045,5.0047,0,4.8968,4.8975,4.9066,4.9161,4.9236,4.9312,4.9385,4.9437,4.9459,4.9535,4.9645,4.9712,4.9844,4.9951,5.0051,5.0094,5.0075,5.0075,5.0104,5.0104,5.0091,5.0099,4.9781,5.0068,5.0066,5.0064,5.0063,5.0062,4.9143,4.9227,4.9296,4.9398,4.9453,4.9521,4.9604,4.964,4.9732,4.9839,4.9841,4.9962,5.0034,5.0166,5.0215,5.031,5.0277,5.0318,5.0329,5.0339,5.0348,5.0076,5.0328,5.0328,5.0327,5.0327,5.0326,0,4.9389,4.9432,4.9525,4.9626,4.9706,4.9679,4.9758,4.9827,4.9933,5.0001,5.0085,5.0213,5.0315,5.0366,5.0468,5.0534,5.0528,5.0561,5.0556,5.0566,5.0371,5.0336,5.0564,5.0564,5.0564,5.0564,5.0564,5.0564,4.9526,4.9666,4.9682,4.9849,4.9891,5.0008,5.0055,5.0118,5.0172,5.0314,5.0399,5.043,5.0492,5.0598,5.0691,5.0703,5.0742,5.0779,5.0787,5.0604,5.058,5.0557,5.0524,5.0787,5.0787,5.0974,5.0975,5.0977]},{"header":{"parameterUnit":"m.s-1","parameterCategory":1,"la1":30.2991,"la2":30.254,"lo1":-89.0895,"lo2":-89.0444,"dy":0.0017,"dx":0.0017,"nx":28,"ny":28,"refTime":"2023-07-21T03:00:00:Z","depth":0,"parameterNumber":3,"parameterNumberName":"V-component_of_WINDS"},"data":[0,0,0,0,0,0,0,0,0,0,0,0,0,0,0,0,0,0,0,0,0,0,0,0,0,0,0,0,0,0,0,0,0,0,0,0,0,0,0,0,0,0,0,0,0,0,0,0,0,0,0,0,0,0,0,0,0,0,0.0546,0.0546,0,0.0553,0.0553,0.0553,0.0549,0.0549,0.0548,0.0548,0.0556,0.0557,0.0557,0,0,0,0,0,0,0,0,0,0,0,0,0,0.053,0.053,0.0546,0.0546,0.0546,0.0553,0.0553,0.0553,0.0549,0.0549,0.0548,0.0548,0.0556,0.0557,0.0557,0,0,0,0,0,0,0,0,0,0,0,0,0,0.0537,0.0531,0.0546,0.0545,0.0545,0.0553,0.0553,0.0553,0.0549,0.0549,0.0548,0.0548,0.0556,0.0556,0.0557,0.0567,0,0,0.0559,0.0559,0,0,0,0,0,0,0,0,0.0537,0.0538,0.0545,0.0545,0.0545,0.055,0.055,0.0558,0.0549,0.0547,0.0548,0.0548,0.0554,0.0555,0.0557,0.0567,0.0567,0.0559,0.0559,0.056,0.056,0,0,0,0,0,0,0,0.0536,0.0537,0.0549,0.0545,0.0545,0.0544,0.0545,0.0552,0.0552,0.0548,0.0547,0.0548,0.0554,0.0556,0.0557,0.0568,0.0559,0.0559,0.056,0.056,0.0585,0.0586,0,0,0,0,0,0,0.0536,0.0537,0.0548,0.0549,0.054,0.0545,0.0545,0.0548,0.0552,0.0553,0.0548,0.0548,0.0556,0.0556,0.0557,0.0569,0.056,0.056,0.056,0.0585,0.0585,0.0586,0,0,0,0,0,0,0.0535,0.0537,0.0548,0.0543,0.0544,0.0545,0.0549,0.0549,0.0551,0.0553,0.0553,0.055,0.0555,0.0557,0.0564,0.0569,0.056,0.0561,0.0585,0.0585,0.0586,0.0592,0,0,0,0,0,0,0.0535,0.0537,0.054,0.0543,0.0544,0.0555,0.0549,0.0549,0.0552,0.0551,0.0555,0.0555,0.0555,0.0563,0.0565,0.057,0.0561,0.0584,0.0585,0.0585,0.0591,0.0592,0.0593,0,0,0,0,0,0.0534,0.0542,0.054,0.0542,0.0549,0.0555,0.0556,0.0556,0.0552,0.0556,0.0557,0.0555,0.0568,0.0564,0.0566,0.0571,0.0584,0.0585,0.0585,0.0591,0.0592,0.0593,0,0,0,0,0,0,0.0541,0.0542,0.0541,0.0549,0.0552,0.0554,0.0559,0.0557,0.0561,0.0561,0.056,0.0561,0.0569,0.0571,0.0566,0.058,0.0576,0.0577,0.0579,0.058,0.0581,0.0581,0.0562,0,0,0,0,0,0.0543,0.0547,0.0549,0.0556,0.0558,0.0558,0.0561,0.056,0.0563,0.0564,0.0566,0.0569,0.0574,0.0577,0.0582,0.0591,0.0592,0.0595,0.0596,0.0597,0.0598,0.0603,0.0605,0.0588,0.0588,0.0588,0,0,0.0548,0.0549,0.0552,0.0558,0.056,0.0564,0.0559,0.0565,0.0568,0.0565,0.0572,0.0574,0.0577,0.0586,0.059,0.0587,0.0603,0.0598,0.0599,0.0599,0.0604,0.0606,0.0607,0.0589,0.0588,0.0588,0,0,0.0559,0.0561,0.0567,0.0569,0.0572,0.0572,0.0573,0.0576,0.0577,0.0584,0.0581,0.0586,0.0594,0.0596,0.0599,0.061,0.0608,0.0611,0.0618,0.0622,0.0624,0.0625,0.0629,0.063,0.0612,0.0612,0.0612,0,0.0565,0.0572,0.0571,0.0576,0.0579,0.0575,0.0582,0.0584,0.0588,0.059,0.0587,0.0597,0.0599,0.0608,0.061,0.0612,0.0614,0.0611,0.0623,0.0625,0.0626,0.063,0.0631,0.0613,0.0613,0.0613,0.0613,0,0.058,0.0584,0.0589,0.0593,0.0596,0.0602,0.0601,0.0604,0.0603,0.0603,0.061,0.0612,0.0617,0.0619,0.0618,0.0628,0.0626,0.0623,0.0619,0.0628,0.0631,0.0633,0.0613,0.0613,0.0613,0.0613,0,0,0.0596,0.0598,0.06,0.0601,0.0604,0.0608,0.0613,0.0617,0.062,0.0623,0.0627,0.0634,0.0631,0.0634,0.0633,0.0637,0.0646,0.0634,0.0634,0.0636,0.0656,0.0659,0.066,0.0644,0.0645,0.0645,0.0656,0,0.0608,0.0618,0.0616,0.0625,0.063,0.0626,0.0631,0.0633,0.0633,0.0637,0.0637,0.0642,0.0638,0.0639,0.0643,0.0644,0.065,0.0643,0.0649,0.0649,0.0649,0.0662,0.0665,0.0675,0.0657,0.0658,0.0658,0,0.0623,0.0626,0.0636,0.0637,0.0639,0.0643,0.0646,0.065,0.0652,0.0652,0.0654,0.0653,0.0658,0.0653,0.0661,0.0656,0.0658,0.0659,0.0659,0.066,0.0655,0.0664,0.0679,0.068,0.066,0.066,0.066,0,0.0635,0.0641,0.0647,0.0648,0.065,0.0653,0.0654,0.0655,0.0658,0.0661,0.0662,0.0666,0.0668,0.0671,0.067,0.0666,0.0678,0.0673,0.0678,0.0678,0.0681,0.0681,0.0697,0.0682,0.0682,0.0682,0.0682,0,0.0648,0.0654,0.0652,0.0656,0.0663,0.0661,0.0667,0.0668,0.0669,0.0673,0.067,0.0674,0.0673,0.0676,0.0676,0.0682,0.0683,0.0683,0.0683,0.0684,0.0684,0.0686,0.0685,0.0682,0.0682,0.0682,0.0682,0,0.0662,0.0661,0.0668,0.0668,0.0668,0.0673,0.0674,0.0677,0.0677,0.0682,0.0683,0.0683,0.0687,0.0686,0.0691,0.0691,0.0699,0.0698,0.0698,0.0698,0.0703,0.0703,0.0721,0.0724,0.0707,0.0707,0.0707,0,0.0671,0.0676,0.0676,0.0679,0.0679,0.0683,0.0685,0.0683,0.0686,0.0688,0.0691,0.0695,0.0698,0.0705,0.0705,0.0709,0.0708,0.0714,0.0709,0.0709,0.0708,0.0708,0.0709,0.0715,0.0716,0.0716,0.0716,0,0.0687,0.0686,0.0689,0.0692,0.0694,0.0697,0.0698,0.07,0.0698,0.0701,0.0705,0.0708,0.0712,0.0716,0.0719,0.072,0.0718,0.0717,0.0719,0.072,0.072,0.072,0.0701,0.0717,0.0717,0.0717,0.0717,0.0717,0.0699,0.0703,0.0704,0.0707,0.0708,0.071,0.0713,0.0713,0.0716,0.0719,0.0718,0.0722,0.0724,0.0728,0.0729,0.0732,0.073,0.0732,0.0733,0.0734,0.0734,0.0719,0.0733,0.0733,0.0733,0.0733,0.0733,0,0.0715,0.0715,0.0718,0.0721,0.0723,0.072,0.0722,0.0724,0.0728,0.0729,0.0732,0.0737,0.074,0.074,0.0744,0.0746,0.0745,0.0747,0.0747,0.0748,0.0736,0.0734,0.0748,0.0748,0.0748,0.0748,0.0748,0.0748,0.0724,0.073,0.0729,0.0735,0.0735,0.0739,0.074,0.0742,0.0743,0.0748,0.075,0.075,0.0751,0.0754,0.0757,0.0757,0.0759,0.0761,0.0761,0.075,0.0748,0.0747,0.0746,0.0761,0.0761,0.0772,0.0772,0.0772]}]]